Time,TemperatureF,DewpointF,PressureIn,WindDirection,WindDirectionDegrees,WindSpeedMPH,WindSpeedGustMPH,Humidity,HourlyPrecipIn,Conditions,Clouds,dailyrainin,SoftwareType,DateUTC
2013-09-25 00:00:00,74.0,37.9,29.87,NNW,338,1.0,1.0,27,0.00,,SKC,0.00,VWS V14.01,2013-09-25 07:00:00,
2013-09-25 00:05:00,74.0,38.9,29.87,NNE,22,3.0,3.0,28,0.00,,SKC,0.00,VWS V14.01,2013-09-25 07:05:00,
2013-09-25 00:11:00,74.0,38.9,29.87,NNE,22,2.0,3.0,28,0.00,,SKC,0.00,VWS V14.01,2013-09-25 07:11:00,
2013-09-25 00:17:00,74.0,38.9,29.87,NNE,22,1.0,2.0,28,0.00,,SKC,0.00,VWS V14.01,2013-09-25 07:17:00,
2013-09-25 00:22:00,74.0,38.9,29.86,NE,45,3.0,3.0,28,0.00,,SKC,0.00,VWS V14.01,2013-09-25 07:22:00,
2013-09-25 00:27:00,74.0,38.9,29.86,NNE,22,3.0,3.0,28,0.00,,SKC,0.00,VWS V14.01,2013-09-25 07:27:00,
2013-09-25 00:32:00,74.0,38.9,29.86,NE,45,2.0,3.0,28,0.00,,SKC,0.00,VWS V14.01,2013-09-25 07:32:00,
2013-09-25 00:37:00,74.0,38.9,29.86,NNE,22,2.0,3.0,28,0.00,,SKC,0.00,VWS V14.01,2013-09-25 07:37:00,
2013-09-25 00:43:00,74.0,38.9,29.86,NNE,22,3.0,4.0,28,0.00,,SKC,0.00,VWS V14.01,2013-09-25 07:43:00,
2013-09-25 00:48:00,74.0,39.8,29.85,NNE,22,3.0,4.0,29,0.00,,SKC,0.00,VWS V14.01,2013-09-25 07:48:00,
2013-09-25 00:53:00,74.0,39.8,29.85,North,0,1.0,1.0,29,0.00,,SKC,0.00,VWS V14.01,2013-09-25 07:53:00,
2013-09-25 00:58:00,73.0,38.9,29.85,NNE,22,2.0,3.0,29,0.00,,SKC,0.00,VWS V14.01,2013-09-25 07:58:00,
2013-09-25 01:03:00,73.0,38.9,29.85,NNE,22,4.0,5.0,29,0.00,,SKC,0.00,VWS V14.01,2013-09-25 08:03:00,
2013-09-25 01:09:00,73.0,38.9,29.85,NE,45,4.0,5.0,29,0.00,,SKC,0.00,VWS V14.01,2013-09-25 08:09:00,
2013-09-25 01:15:00,73.0,38.9,29.85,NNE,22,2.0,3.0,29,0.00,,SKC,0.00,VWS V14.01,2013-09-25 08:15:00,
2013-09-25 01:21:00,73.0,38.9,29.85,NE,45,1.0,2.0,29,0.00,,SKC,0.00,VWS V14.01,2013-09-25 08:21:00,
2013-09-25 01:27:00,73.0,38.9,29.85,NNE,22,3.0,3.0,29,0.00,,SKC,0.00,VWS V14.01,2013-09-25 08:27:00,
2013-09-25 01:32:00,73.0,38.9,29.84,North,0,5.0,5.0,29,0.00,,SKC,0.00,VWS V14.01,2013-09-25 08:32:00,
2013-09-25 01:37:00,72.0,38.9,29.84,SW,225,1.0,2.0,30,0.00,,SKC,0.00,VWS V14.01,2013-09-25 08:37:00,
2013-09-25 01:42:00,72.0,39.7,29.84,SW,225,1.0,1.0,31,0.00,,SKC,0.00,VWS V14.01,2013-09-25 08:42:00,
2013-09-25 01:47:00,71.0,39.7,29.84,SW,225,1.0,1.0,32,0.00,,SKC,0.00,VWS V14.01,2013-09-25 08:47:00,
2013-09-25 01:52:00,69.0,39.5,29.84,NW,315,4.0,5.0,34,0.00,,SKC,0.00,VWS V14.01,2013-09-25 08:52:00,
2013-09-25 01:57:00,70.0,39.6,29.84,WNW,292,3.0,3.0,33,0.00,,SKC,0.00,VWS V14.01,2013-09-25 08:57:00,
2013-09-25 02:02:00,70.0,39.6,29.84,WNW,292,0.0,1.0,33,0.00,,SKC,0.00,VWS V14.01,2013-09-25 09:02:00,
2013-09-25 02:07:00,71.0,38.9,29.84,ESE,112,1.0,2.0,31,0.00,,SKC,0.00,VWS V14.01,2013-09-25 09:07:00,
2013-09-25 02:12:00,71.0,38.9,29.84,SSE,158,3.0,4.0,31,0.00,,SKC,0.00,VWS V14.01,2013-09-25 09:12:00,
2013-09-25 02:17:00,70.0,40.4,29.84,NE,45,1.0,1.0,34,0.00,,SKC,0.00,VWS V14.01,2013-09-25 09:17:00,
2013-09-25 02:22:00,68.0,40.1,29.84,ENE,68,1.0,1.0,36,0.00,,SKC,0.00,VWS V14.01,2013-09-25 09:22:00,
2013-09-25 02:27:00,67.0,39.9,29.84,NE,45,1.0,2.0,37,0.00,,SKC,0.00,VWS V14.01,2013-09-25 09:27:00,
2013-09-25 02:32:00,66.0,39.0,29.83,NE,45,3.0,3.0,37,0.00,,SKC,0.00,VWS V14.01,2013-09-25 09:32:00,
2013-09-25 02:37:00,66.0,39.0,29.83,North,0,1.0,3.0,37,0.00,,SKC,0.00,VWS V14.01,2013-09-25 09:37:00,
2013-09-25 02:42:00,66.0,39.0,29.83,NNE,22,1.0,2.0,37,0.00,,SKC,0.00,VWS V14.01,2013-09-25 09:42:00,
2013-09-25 02:47:00,66.0,39.7,29.83,NNE,22,3.0,3.0,38,0.00,,SKC,0.00,VWS V14.01,2013-09-25 09:47:00,
2013-09-25 02:52:00,66.0,39.7,29.83,NE,45,2.0,3.0,38,0.00,,SKC,0.00,VWS V14.01,2013-09-25 09:52:00,
2013-09-25 02:57:00,66.0,39.0,29.83,NE,45,5.0,5.0,37,0.00,,SKC,0.00,VWS V14.01,2013-09-25 09:57:00,
2013-09-25 03:02:00,67.0,39.2,29.83,NE,45,5.0,5.0,36,0.00,,SKC,0.00,VWS V14.01,2013-09-25 10:02:00,
2013-09-25 03:07:00,67.0,38.5,29.83,North,0,2.0,3.0,35,0.00,,SKC,0.00,VWS V14.01,2013-09-25 10:07:00,
2013-09-25 03:12:00,67.0,38.5,29.83,NNW,338,4.0,5.0,35,0.00,,SKC,0.00,VWS V14.01,2013-09-25 10:12:00,
2013-09-25 03:17:00,67.0,37.7,29.83,WNW,292,2.0,3.0,34,0.00,,SKC,0.00,VWS V14.01,2013-09-25 10:17:00,
2013-09-25 03:22:00,68.0,38.6,29.83,ESE,112,5.0,5.0,34,0.00,,SKC,0.00,VWS V14.01,2013-09-25 10:22:00,
2013-09-25 03:27:00,67.0,38.5,29.83,NE,45,1.0,1.0,35,0.00,,SKC,0.00,VWS V14.01,2013-09-25 10:27:00,
2013-09-25 03:32:00,67.0,39.2,29.83,SSW,202,1.0,2.0,36,0.00,,SKC,0.00,VWS V14.01,2013-09-25 10:32:00,
2013-09-25 03:37:00,66.0,39.0,29.83,NW,315,3.0,3.0,37,0.00,,SKC,0.00,VWS V14.01,2013-09-25 10:37:00,
2013-09-25 03:42:00,66.0,39.0,29.83,WNW,292,3.0,3.0,37,0.00,,SKC,0.00,VWS V14.01,2013-09-25 10:42:00,
2013-09-25 03:47:00,66.0,38.3,29.83,WNW,292,4.0,5.0,36,0.00,,SKC,0.00,VWS V14.01,2013-09-25 10:47:00,
2013-09-25 03:52:00,67.0,38.5,29.83,NW,315,2.0,2.0,35,0.00,,SKC,0.00,VWS V14.01,2013-09-25 10:52:00,
2013-09-25 03:57:00,66.0,38.3,29.83,ESE,112,1.0,1.0,36,0.00,,SKC,0.00,VWS V14.01,2013-09-25 10:57:00,
2013-09-25 04:02:00,66.0,39.0,29.83,ESE,112,0.0,0.0,37,0.00,,SKC,0.00,VWS V14.01,2013-09-25 11:02:00,
2013-09-25 04:07:00,66.0,39.0,29.83,ENE,68,2.0,2.0,37,0.00,,SKC,0.00,VWS V14.01,2013-09-25 11:07:00,
2013-09-25 04:12:00,65.0,38.8,29.84,NW,315,3.0,3.0,38,0.00,,SKC,0.00,VWS V14.01,2013-09-25 11:12:00,
2013-09-25 04:17:00,65.0,38.1,29.84,NW,315,3.0,4.0,37,0.00,,SKC,0.00,VWS V14.01,2013-09-25 11:17:00,
2013-09-25 04:22:00,65.0,38.1,29.84,NW,315,3.0,3.0,37,0.00,,SKC,0.00,VWS V14.01,2013-09-25 11:22:00,
2013-09-25 04:27:00,65.0,38.1,29.84,North,0,1.0,1.0,37,0.00,,SKC,0.00,VWS V14.01,2013-09-25 11:27:00,
2013-09-25 04:32:00,65.0,37.4,29.84,North,0,1.0,1.0,36,0.00,,SKC,0.00,VWS V14.01,2013-09-25 11:32:00,
2013-09-25 04:37:00,65.0,36.7,29.84,NNW,338,5.0,5.0,35,0.00,,SKC,0.00,VWS V14.01,2013-09-25 11:37:00,
2013-09-25 04:42:00,66.0,36.8,29.84,NNW,338,3.0,3.0,34,0.00,,SKC,0.00,VWS V14.01,2013-09-25 11:42:00,
2013-09-25 04:47:00,66.0,36.8,29.84,NNW,338,2.0,3.0,34,0.00,,SKC,0.00,VWS V14.01,2013-09-25 11:47:00,
2013-09-25 04:52:00,66.0,36.8,29.84,NNE,22,1.0,2.0,34,0.00,,SKC,0.00,VWS V14.01,2013-09-25 11:52:00,
2013-09-25 04:57:00,66.0,36.8,29.84,SE,135,3.0,3.0,34,0.00,,SKC,0.00,VWS V14.01,2013-09-25 11:57:00,
2013-09-25 05:02:00,65.0,37.4,29.84,ENE,68,0.0,0.0,36,0.00,,SKC,0.00,VWS V14.01,2013-09-25 12:02:00,
2013-09-25 05:07:00,64.0,35.8,29.84,NNW,338,0.0,1.0,35,0.00,,SKC,0.00,VWS V14.01,2013-09-25 12:07:00,
2013-09-25 05:12:00,64.0,37.9,29.84,ENE,68,1.0,1.0,38,0.00,,SKC,0.00,VWS V14.01,2013-09-25 12:12:00,
2013-09-25 05:17:00,63.0,37.7,29.84,ENE,68,1.0,1.0,39,0.00,,SKC,0.00,VWS V14.01,2013-09-25 12:17:00,
2013-09-25 05:22:00,62.0,37.4,29.84,NNE,22,3.0,3.0,40,0.00,,SKC,0.00,VWS V14.01,2013-09-25 12:22:00,
2013-09-25 05:27:00,63.0,38.3,29.84,NNE,22,3.0,4.0,40,0.00,,SKC,0.00,VWS V14.01,2013-09-25 12:27:00,
2013-09-25 05:29:00,63.0,37.7,29.84,North,0,3.0,3.0,39,0.00,,SKC,0.00,VWS V14.01,2013-09-25 12:29:00,
2013-09-25 05:34:00,63.0,37.7,29.84,NE,45,4.0,4.0,39,0.00,,SKC,0.00,VWS V14.01,2013-09-25 12:34:00,
2013-09-25 05:39:00,63.0,37.0,29.84,NNE,22,3.0,4.0,38,0.00,,SKC,0.00,VWS V14.01,2013-09-25 12:39:00,
2013-09-25 05:44:00,64.0,37.9,29.83,NE,45,2.0,2.0,38,0.00,,SKC,0.00,VWS V14.01,2013-09-25 12:44:00,
2013-09-25 05:49:00,64.0,37.2,29.83,NNE,22,3.0,3.0,37,0.00,,SKC,0.00,VWS V14.01,2013-09-25 12:49:00,
2013-09-25 05:54:00,64.0,36.5,29.83,NNW,338,1.0,1.0,36,0.00,,SKC,0.00,VWS V14.01,2013-09-25 12:54:00,
2013-09-25 05:59:00,65.0,37.4,29.83,NNW,338,0.0,0.0,36,0.00,,SKC,0.00,VWS V14.01,2013-09-25 12:59:00,
2013-09-25 06:04:00,64.0,36.5,29.83,NNW,338,1.0,1.0,36,0.00,,SKC,0.00,VWS V14.01,2013-09-25 13:04:00,
2013-09-25 06:09:00,64.0,37.9,29.83,NNW,338,2.0,2.0,38,0.00,,SKC,0.00,VWS V14.01,2013-09-25 13:09:00,
2013-09-25 06:14:00,63.0,37.7,29.83,NW,315,6.0,6.0,39,0.00,,SKC,0.00,VWS V14.01,2013-09-25 13:14:00,
2013-09-25 06:19:00,63.0,37.0,29.83,NW,315,5.0,5.0,38,0.00,,SKC,0.00,VWS V14.01,2013-09-25 13:19:00,
2013-09-25 06:24:00,63.0,37.0,29.83,NW,315,6.0,6.0,38,0.00,,SKC,0.00,VWS V14.01,2013-09-25 13:24:00,
2013-09-25 06:29:00,64.0,36.5,29.83,WNW,292,6.0,6.0,36,0.00,,SKC,0.00,VWS V14.01,2013-09-25 13:29:00,
2013-09-25 06:34:00,66.0,36.8,29.83,West,270,1.0,2.0,34,0.00,,SKC,0.00,VWS V14.01,2013-09-25 13:34:00,
2013-09-25 06:39:00,65.0,38.1,29.83,SE,135,1.0,1.0,37,0.00,,SKC,0.00,VWS V14.01,2013-09-25 13:39:00,
2013-09-25 06:44:00,64.0,38.6,29.83,ESE,112,3.0,3.0,39,0.00,,SKC,0.00,VWS V14.01,2013-09-25 13:44:00,
2013-09-25 06:49:00,63.0,39.0,29.84,East,90,3.0,3.0,41,0.00,,SKC,0.00,VWS V14.01,2013-09-25 13:49:00,
2013-09-25 06:54:00,62.0,38.7,29.84,NE,45,1.0,3.0,42,0.00,,SKC,0.00,VWS V14.01,2013-09-25 13:54:00,
2013-09-25 06:59:00,62.0,39.3,29.84,NE,45,3.0,3.0,43,0.00,,SKC,0.00,VWS V14.01,2013-09-25 13:59:00,
2013-09-25 07:04:00,63.0,39.6,29.84,NE,45,3.0,3.0,42,0.00,,SKC,0.00,VWS V14.01,2013-09-25 14:04:00,
2013-09-25 07:09:00,64.0,39.8,29.84,NNE,22,3.0,4.0,41,0.00,,SKC,0.00,VWS V14.01,2013-09-25 14:09:00,
2013-09-25 07:14:00,65.0,39.5,29.84,NNE,22,3.0,4.0,39,0.00,,SKC,0.00,VWS V14.01,2013-09-25 14:14:00,
2013-09-25 07:19:00,66.0,39.7,29.84,NNE,22,2.0,3.0,38,0.00,,SKC,0.00,VWS V14.01,2013-09-25 14:19:00,
2013-09-25 07:24:00,66.0,39.7,29.84,WSW,248,1.0,2.0,38,0.00,,SKC,0.00,VWS V14.01,2013-09-25 14:24:00,
2013-09-25 07:29:00,67.0,40.6,29.85,WSW,248,0.0,1.0,38,0.00,,SKC,0.00,VWS V14.01,2013-09-25 14:29:00,
2013-09-25 07:34:00,67.0,39.9,29.85,NNW,338,0.0,1.0,37,0.00,,SKC,0.00,VWS V14.01,2013-09-25 14:34:00,
2013-09-25 07:39:00,67.0,40.6,29.85,NNW,338,1.0,2.0,38,0.00,,SKC,0.00,VWS V14.01,2013-09-25 14:39:00,
2013-09-25 07:44:00,68.0,39.3,29.85,NNE,22,1.0,1.0,35,0.00,,SKC,0.00,VWS V14.01,2013-09-25 14:44:00,
2013-09-25 07:49:00,69.0,38.7,29.84,NE,45,3.0,3.0,33,0.00,,SKC,0.00,VWS V14.01,2013-09-25 14:49:00,
2013-09-25 07:54:00,70.0,38.8,29.84,NNW,338,1.0,1.0,32,0.00,,SKC,0.00,VWS V14.01,2013-09-25 14:54:00,
2013-09-25 07:59:00,71.0,38.9,29.84,NNW,338,3.0,3.0,31,0.00,,SKC,0.00,VWS V14.01,2013-09-25 14:59:00,
2013-09-25 08:04:00,71.0,38.0,29.84,NNW,338,2.0,3.0,30,0.00,,SKC,0.00,VWS V14.01,2013-09-25 15:04:00,
2013-09-25 08:09:00,72.0,39.7,29.84,NNW,338,1.0,2.0,31,0.00,,SKC,0.00,VWS V14.01,2013-09-25 15:09:00,
2013-09-25 08:14:00,73.0,38.9,29.84,West,270,3.0,3.0,29,0.00,,SKC,0.00,VWS V14.01,2013-09-25 15:14:00,
2013-09-25 08:19:00,73.0,37.1,29.84,WSW,248,1.0,1.0,27,0.00,,SKC,0.00,VWS V14.01,2013-09-25 15:19:00,
2013-09-25 08:24:00,74.0,37.0,29.84,WSW,248,1.0,2.0,26,0.00,,SKC,0.00,VWS V14.01,2013-09-25 15:24:00,
2013-09-25 08:29:00,74.0,37.0,29.84,West,270,5.0,5.0,26,0.00,,SKC,0.00,VWS V14.01,2013-09-25 15:29:00,
2013-09-25 08:34:00,75.0,37.8,29.84,SSW,202,1.0,1.0,26,0.00,,SKC,0.00,VWS V14.01,2013-09-25 15:34:00,
2013-09-25 08:39:00,75.0,36.8,29.85,SE,135,1.0,1.0,25,0.00,,SKC,0.00,VWS V14.01,2013-09-25 15:39:00,
2013-09-25 08:44:00,76.0,38.7,29.84,ESE,112,1.0,2.0,26,0.00,,SKC,0.00,VWS V14.01,2013-09-25 15:44:00,
2013-09-25 08:49:00,77.0,38.5,29.84,East,90,2.0,2.0,25,0.00,,SKC,0.00,VWS V14.01,2013-09-25 15:49:00,
2013-09-25 08:54:00,77.0,37.5,29.84,SSE,158,2.0,3.0,24,0.00,,SKC,0.00,VWS V14.01,2013-09-25 15:54:00,
2013-09-25 08:59:00,79.0,37.0,29.84,SE,135,3.0,4.0,22,0.00,,SKC,0.00,VWS V14.01,2013-09-25 15:59:00,
2013-09-25 09:04:00,80.0,32.7,29.84,SSE,158,5.0,8.0,18,0.00,,SKC,0.00,VWS V14.01,2013-09-25 16:04:00,
2013-09-25 09:09:00,81.0,34.9,29.84,SE,135,4.0,5.0,19,0.00,,SKC,0.00,VWS V14.01,2013-09-25 16:09:00,
2013-09-25 09:14:00,82.0,34.4,29.84,SSE,158,8.0,8.0,18,0.00,,SKC,0.00,VWS V14.01,2013-09-25 16:14:00,
2013-09-25 09:19:00,82.0,32.9,29.84,SE,135,8.0,9.0,17,0.00,,SKC,0.00,VWS V14.01,2013-09-25 16:19:00,
2013-09-25 09:24:00,83.0,33.7,29.84,SSE,158,5.0,5.0,17,0.00,,SKC,0.00,VWS V14.01,2013-09-25 16:24:00,
2013-09-25 09:29:00,83.0,33.7,29.84,SSE,158,5.0,9.0,17,0.00,,SKC,0.00,VWS V14.01,2013-09-25 16:29:00,
2013-09-25 09:34:00,84.0,29.7,29.83,SSE,158,6.0,8.0,14,0.00,,SKC,0.00,VWS V14.01,2013-09-25 16:34:00,
2013-09-25 09:39:00,84.0,29.7,29.83,SE,135,8.0,14.0,14,0.00,,SKC,0.00,VWS V14.01,2013-09-25 16:39:00,
2013-09-25 09:44:00,85.0,30.5,29.83,SE,135,5.0,7.0,14,0.00,,SKC,0.00,VWS V14.01,2013-09-25 16:44:00,
2013-09-25 09:49:00,85.0,30.5,29.83,SSE,158,7.0,10.0,14,0.00,,SKC,0.00,VWS V14.01,2013-09-25 16:49:00,
2013-09-25 09:54:00,86.0,31.3,29.83,SSE,158,5.0,5.0,14,0.00,,SKC,0.00,VWS V14.01,2013-09-25 16:54:00,
2013-09-25 09:59:00,86.0,31.3,29.83,SSE,158,7.0,9.0,14,0.00,,SKC,0.00,VWS V14.01,2013-09-25 16:59:00,
2013-09-25 10:04:00,87.0,32.1,29.83,SSW,202,6.0,10.0,14,0.00,,SKC,0.00,VWS V14.01,2013-09-25 17:04:00,
2013-09-25 10:09:00,88.0,32.9,29.83,SSE,158,4.0,5.0,14,0.00,,SKC,0.00,VWS V14.01,2013-09-25 17:09:00,
2013-09-25 10:14:00,88.0,31.0,29.83,South,180,11.0,11.0,13,0.00,,SKC,0.00,VWS V14.01,2013-09-25 17:14:00,
2013-09-25 10:19:00,87.0,30.3,29.83,SSE,158,7.0,10.0,13,0.00,,SKC,0.00,VWS V14.01,2013-09-25 17:19:00,
2013-09-25 10:24:00,88.0,31.0,29.83,SSE,158,9.0,9.0,13,0.00,,SKC,0.00,VWS V14.01,2013-09-25 17:24:00,
2013-09-25 10:29:00,88.0,32.9,29.83,SSW,202,6.0,7.0,14,0.00,,SKC,0.00,VWS V14.01,2013-09-25 17:29:00,
2013-09-25 10:34:00,89.0,33.7,29.83,SSE,158,2.0,3.0,14,0.00,,SKC,0.00,VWS V14.01,2013-09-25 17:34:00,
2013-09-25 10:39:00,89.0,31.8,29.82,SSE,158,10.0,10.0,13,0.00,,SKC,0.00,VWS V14.01,2013-09-25 17:39:00,
2013-09-25 10:44:00,89.0,31.8,29.82,SW,225,5.0,6.0,13,0.00,,SKC,0.00,VWS V14.01,2013-09-25 17:44:00,
2013-09-25 10:49:00,89.0,31.8,29.82,SE,135,7.0,7.0,13,0.00,,SKC,0.00,VWS V14.01,2013-09-25 17:49:00,
2013-09-25 10:54:00,89.0,31.8,29.82,South,180,5.0,6.0,13,0.00,,SKC,0.00,VWS V14.01,2013-09-25 17:54:00,
2013-09-25 10:59:00,89.0,31.8,29.82,SSE,158,6.0,6.0,13,0.00,,SKC,0.00,VWS V14.01,2013-09-25 17:59:00,
2013-09-25 11:04:00,89.0,31.8,29.81,SSE,158,8.0,8.0,13,0.00,,SKC,0.00,VWS V14.01,2013-09-25 18:04:00,
2013-09-25 11:09:00,90.0,32.6,29.81,SW,225,3.0,4.0,13,0.00,,SKC,0.00,VWS V14.01,2013-09-25 18:09:00,
2013-09-25 11:14:00,90.0,32.6,29.81,SW,225,3.0,5.0,13,0.00,,SKC,0.00,VWS V14.01,2013-09-25 18:14:00,
2013-09-25 11:19:00,91.0,33.4,29.81,SW,225,5.0,6.0,13,0.00,,SKC,0.00,VWS V14.01,2013-09-25 18:19:00,
2013-09-25 11:24:00,91.0,33.4,29.81,SW,225,6.0,6.0,13,0.00,,SKC,0.00,VWS V14.01,2013-09-25 18:24:00,
2013-09-25 11:29:00,91.0,33.4,29.81,SSW,202,7.0,8.0,13,0.00,,SKC,0.00,VWS V14.01,2013-09-25 18:29:00,
2013-09-25 11:34:00,91.0,33.4,29.80,SSW,202,4.0,7.0,13,0.00,,SKC,0.00,VWS V14.01,2013-09-25 18:34:00,
2013-09-25 11:39:00,91.0,33.4,29.80,SSW,202,8.0,9.0,13,0.00,,SKC,0.00,VWS V14.01,2013-09-25 18:39:00,
2013-09-25 11:44:00,91.0,33.4,29.80,SSE,158,3.0,4.0,13,0.00,,SKC,0.00,VWS V14.01,2013-09-25 18:44:00,
2013-09-25 11:49:00,92.0,34.2,29.80,WSW,248,5.0,5.0,13,0.00,,SKC,0.00,VWS V14.01,2013-09-25 18:49:00,
2013-09-25 11:54:00,92.0,34.2,29.79,South,180,6.0,8.0,13,0.00,,SKC,0.00,VWS V14.01,2013-09-25 18:54:00,
2013-09-25 11:59:00,92.0,32.2,29.79,SSW,202,5.0,6.0,12,0.00,,SKC,0.00,VWS V14.01,2013-09-25 18:59:00,
2013-09-25 12:04:00,92.0,32.2,29.79,WSW,248,5.0,7.0,12,0.00,,SKC,0.00,VWS V14.01,2013-09-25 19:04:00,
2013-09-25 12:09:00,91.0,31.4,29.78,SSE,158,8.0,9.0,12,0.00,,SKC,0.00,VWS V14.01,2013-09-25 19:09:00,
2013-09-25 12:14:00,92.0,34.2,29.78,SSE,158,5.0,5.0,13,0.00,,SKC,0.00,VWS V14.01,2013-09-25 19:14:00,
2013-09-25 12:19:00,92.0,32.2,29.78,SSW,202,10.0,11.0,12,0.00,,SKC,0.00,VWS V14.01,2013-09-25 19:19:00,
2013-09-25 12:24:00,93.0,35.0,29.78,SSE,158,5.0,6.0,13,0.00,,SKC,0.00,VWS V14.01,2013-09-25 19:24:00,
2013-09-25 12:29:00,93.0,33.0,29.78,SSE,158,8.0,8.0,12,0.00,,SKC,0.00,VWS V14.01,2013-09-25 19:29:00,
2013-09-25 12:34:00,92.0,32.2,29.77,SSE,158,6.0,6.0,12,0.00,,SKC,0.00,VWS V14.01,2013-09-25 19:34:00,
2013-09-25 12:39:00,92.0,32.2,29.77,ESE,112,6.0,8.0,12,0.00,,SKC,0.00,VWS V14.01,2013-09-25 19:39:00,
2013-09-25 12:44:00,93.0,33.0,29.77,SSW,202,6.0,8.0,12,0.00,,SKC,0.00,VWS V14.01,2013-09-25 19:44:00,
2013-09-25 12:49:00,92.0,32.2,29.77,ESE,112,7.0,7.0,12,0.00,,SKC,0.00,VWS V14.01,2013-09-25 19:49:00,
2013-09-25 12:54:00,93.0,33.0,29.76,WSW,248,5.0,6.0,12,0.00,,SKC,0.00,VWS V14.01,2013-09-25 19:54:00,
2013-09-25 12:59:00,93.0,33.0,29.76,ESE,112,6.0,10.0,12,0.00,,SKC,0.00,VWS V14.01,2013-09-25 19:59:00,
2013-09-25 13:04:00,93.0,33.0,29.76,SE,135,3.0,6.0,12,0.00,,SKC,0.00,VWS V14.01,2013-09-25 20:04:00,
2013-09-25 13:09:00,94.0,33.7,29.76,SW,225,5.0,5.0,12,0.00,,SKC,0.00,VWS V14.01,2013-09-25 20:09:00,
2013-09-25 13:14:00,94.0,33.7,29.75,West,270,12.0,16.0,12,0.00,,SKC,0.00,VWS V14.01,2013-09-25 20:14:00,
2013-09-25 13:19:00,93.0,33.0,29.75,WSW,248,10.0,11.0,12,0.00,,SKC,0.00,VWS V14.01,2013-09-25 20:19:00,
2013-09-25 13:24:00,92.0,32.2,29.75,WNW,292,11.0,17.0,12,0.00,,SKC,0.00,VWS V14.01,2013-09-25 20:24:00,
2013-09-25 13:29:00,93.0,33.0,29.75,SSW,202,6.0,9.0,12,0.00,,SKC,0.00,VWS V14.01,2013-09-25 20:29:00,
2013-09-25 13:34:00,93.0,33.0,29.75,SSE,158,6.0,10.0,12,0.00,,SKC,0.00,VWS V14.01,2013-09-25 20:34:00,
2013-09-25 13:39:00,94.0,33.7,29.74,SW,225,8.0,11.0,12,0.00,,SKC,0.00,VWS V14.01,2013-09-25 20:39:00,
2013-09-25 13:44:00,95.0,34.5,29.74,SW,225,5.0,7.0,12,0.00,,SKC,0.00,VWS V14.01,2013-09-25 20:44:00,
2013-09-25 13:49:00,94.0,33.7,29.74,SW,225,3.0,5.0,12,0.00,,SKC,0.00,VWS V14.01,2013-09-25 20:49:00,
2013-09-25 13:54:00,93.0,33.0,29.74,SW,225,10.0,16.0,12,0.00,,SKC,0.00,VWS V14.01,2013-09-25 20:54:00,
2013-09-25 13:59:00,93.0,33.0,29.74,SW,225,6.0,6.0,12,0.00,,SKC,0.00,VWS V14.01,2013-09-25 20:59:00,
2013-09-25 14:04:00,94.0,33.7,29.74,ESE,112,8.0,8.0,12,0.00,,SKC,0.00,VWS V14.01,2013-09-25 21:04:00,
2013-09-25 14:09:00,94.0,33.7,29.73,SSE,158,4.0,5.0,12,0.00,,SKC,0.00,VWS V14.01,2013-09-25 21:09:00,
2013-09-25 14:14:00,94.0,33.7,29.73,SSE,158,5.0,6.0,12,0.00,,SKC,0.00,VWS V14.01,2013-09-25 21:14:00,
2013-09-25 14:19:00,95.0,34.5,29.73,SW,225,8.0,8.0,12,0.00,,SKC,0.00,VWS V14.01,2013-09-25 21:19:00,
2013-09-25 14:24:00,95.0,34.5,29.74,NNW,338,5.0,5.0,12,0.00,,SKC,0.00,VWS V14.01,2013-09-25 21:24:00,
2013-09-25 14:29:00,95.0,34.5,29.73,NE,45,2.0,3.0,12,0.00,,SKC,0.00,VWS V14.01,2013-09-25 21:29:00,
2013-09-25 14:34:00,96.0,35.3,29.73,WSW,248,4.0,5.0,12,0.00,,SKC,0.00,VWS V14.01,2013-09-25 21:34:00,
2013-09-25 14:39:00,95.0,34.5,29.73,SSE,158,10.0,10.0,12,0.00,,SKC,0.00,VWS V14.01,2013-09-25 21:39:00,
2013-09-25 14:44:00,95.0,32.3,29.73,SW,225,6.0,8.0,11,0.00,,SKC,0.00,VWS V14.01,2013-09-25 21:44:00,
2013-09-25 14:49:00,95.0,32.3,29.73,South,180,3.0,6.0,11,0.00,,SKC,0.00,VWS V14.01,2013-09-25 21:49:00,
2013-09-25 14:54:00,96.0,33.1,29.73,WSW,248,7.0,10.0,11,0.00,,SKC,0.00,VWS V14.01,2013-09-25 21:54:00,
2013-09-25 14:59:00,96.0,33.1,29.73,SSW,202,5.0,7.0,11,0.00,,SKC,0.00,VWS V14.01,2013-09-25 21:59:00,
2013-09-25 15:04:00,96.0,33.1,29.72,WSW,248,6.0,6.0,11,0.00,,SKC,0.00,VWS V14.01,2013-09-25 22:04:00,
2013-09-25 15:09:00,96.0,33.1,29.72,South,180,6.0,7.0,11,0.00,,SKC,0.00,VWS V14.01,2013-09-25 22:09:00,
2013-09-25 15:14:00,94.0,31.6,29.72,SSE,158,10.0,15.0,11,0.00,,SKC,0.00,VWS V14.01,2013-09-25 22:14:00,
2013-09-25 15:19:00,94.0,31.6,29.72,South,180,8.0,8.0,11,0.00,,SKC,0.00,VWS V14.01,2013-09-25 22:19:00,
2013-09-25 15:24:00,95.0,34.5,29.72,SE,135,5.0,8.0,12,0.00,,SKC,0.00,VWS V14.01,2013-09-25 22:24:00,
2013-09-25 15:29:00,95.0,32.3,29.72,WSW,248,6.0,7.0,11,0.00,,SKC,0.00,VWS V14.01,2013-09-25 22:29:00,
2013-09-25 15:34:00,95.0,32.3,29.72,WNW,292,5.0,10.0,11,0.00,,SKC,0.00,VWS V14.01,2013-09-25 22:34:00,
2013-09-25 15:39:00,95.0,32.3,29.72,SW,225,8.0,8.0,11,0.00,,SKC,0.00,VWS V14.01,2013-09-25 22:39:00,
2013-09-25 15:44:00,95.0,32.3,29.72,SSE,158,6.0,8.0,11,0.00,,SKC,0.00,VWS V14.01,2013-09-25 22:44:00,
2013-09-25 15:49:00,94.0,31.6,29.72,South,180,6.0,6.0,11,0.00,,SKC,0.00,VWS V14.01,2013-09-25 22:49:00,
2013-09-25 15:54:00,94.0,31.6,29.72,SW,225,7.0,8.0,11,0.00,,SKC,0.00,VWS V14.01,2013-09-25 22:54:00,
2013-09-25 15:59:00,94.0,31.6,29.72,SW,225,5.0,7.0,11,0.00,,SKC,0.00,VWS V14.01,2013-09-25 22:59:00,
2013-09-25 16:04:00,94.0,31.6,29.72,SSW,202,8.0,11.0,11,0.00,,SKC,0.00,VWS V14.01,2013-09-25 23:04:00,
2013-09-25 16:09:00,94.0,31.6,29.72,WSW,248,5.0,8.0,11,0.00,,SKC,0.00,VWS V14.01,2013-09-25 23:09:00,
2013-09-25 16:14:00,94.0,31.6,29.72,SSW,202,5.0,6.0,11,0.00,,SKC,0.00,VWS V14.01,2013-09-25 23:14:00,
2013-09-25 16:19:00,94.0,31.6,29.72,SSE,158,6.0,6.0,11,0.00,,SKC,0.00,VWS V14.01,2013-09-25 23:19:00,
2013-09-25 16:24:00,94.0,31.6,29.72,SSW,202,6.0,9.0,11,0.00,,SKC,0.00,VWS V14.01,2013-09-25 23:24:00,
2013-09-25 16:29:00,93.0,30.8,29.71,SW,225,10.0,13.0,11,0.00,,SKC,0.00,VWS V14.01,2013-09-25 23:29:00,
2013-09-25 16:34:00,93.0,30.8,29.72,ENE,68,8.0,12.0,11,0.00,,SKC,0.00,VWS V14.01,2013-09-25 23:34:00,
2013-09-25 16:39:00,91.0,29.3,29.71,SSW,202,5.0,11.0,11,0.00,,SKC,0.00,VWS V14.01,2013-09-25 23:39:00,
2013-09-25 16:44:00,92.0,30.0,29.72,SW,225,4.0,5.0,11,0.00,,SKC,0.00,VWS V14.01,2013-09-25 23:44:00,
2013-09-25 16:49:00,92.0,30.0,29.72,SW,225,6.0,9.0,11,0.00,,SKC,0.00,VWS V14.01,2013-09-25 23:49:00,
2013-09-25 16:54:00,92.0,30.0,29.72,SSE,158,5.0,6.0,11,0.00,,SKC,0.00,VWS V14.01,2013-09-25 23:54:00,
2013-09-25 16:59:00,92.0,30.0,29.71,North,0,7.0,10.0,11,0.00,,SKC,0.00,VWS V14.01,2013-09-25 23:59:00,
2013-09-25 17:04:00,91.0,29.3,29.72,SSE,158,7.0,8.0,11,0.00,,SKC,0.00,VWS V14.01,2013-09-26 00:04:00,
2013-09-25 17:09:00,91.0,29.3,29.72,South,180,6.0,8.0,11,0.00,,SKC,0.00,VWS V14.01,2013-09-26 00:09:00,
2013-09-25 17:14:00,91.0,29.3,29.72,SSE,158,8.0,8.0,11,0.00,,SKC,0.00,VWS V14.01,2013-09-26 00:14:00,
2013-09-25 17:19:00,90.0,30.6,29.72,South,180,4.0,5.0,12,0.00,,SKC,0.00,VWS V14.01,2013-09-26 00:19:00,
2013-09-25 17:24:00,90.0,30.6,29.72,ENE,68,3.0,5.0,12,0.00,,SKC,0.00,VWS V14.01,2013-09-26 00:24:00,
2013-09-25 17:29:00,90.0,30.6,29.71,ESE,112,4.0,5.0,12,0.00,,SKC,0.00,VWS V14.01,2013-09-26 00:29:00,
2013-09-25 17:34:00,90.0,30.6,29.71,SW,225,7.0,7.0,12,0.00,,SKC,0.00,VWS V14.01,2013-09-26 00:34:00,
2013-09-25 17:39:00,89.0,29.9,29.72,SSW,202,5.0,8.0,12,0.00,,SKC,0.00,VWS V14.01,2013-09-26 00:39:00,
2013-09-25 17:44:00,89.0,29.9,29.72,SE,135,7.0,7.0,12,0.00,,SKC,0.00,VWS V14.01,2013-09-26 00:44:00,
2013-09-25 17:49:00,88.0,29.1,29.72,South,180,7.0,8.0,12,0.00,,SKC,0.00,VWS V14.01,2013-09-26 00:49:00,
2013-09-25 17:54:00,88.0,31.0,29.72,WSW,248,6.0,6.0,13,0.00,,SKC,0.00,VWS V14.01,2013-09-26 00:54:00,
2013-09-25 17:59:00,87.0,30.3,29.72,SW,225,12.0,12.0,13,0.00,,SKC,0.00,VWS V14.01,2013-09-26 00:59:00,
2013-09-25 18:04:00,87.0,30.3,29.72,WNW,292,5.0,9.0,13,0.00,,SKC,0.00,VWS V14.01,2013-09-26 01:04:00,
2013-09-25 18:09:00,86.0,29.5,29.72,SW,225,6.0,8.0,13,0.00,,SKC,0.00,VWS V14.01,2013-09-26 01:09:00,
2013-09-25 18:14:00,86.0,29.5,29.72,SSW,202,6.0,7.0,13,0.00,,SKC,0.00,VWS V14.01,2013-09-26 01:14:00,
2013-09-25 18:19:00,85.0,30.5,29.72,SSW,202,10.0,10.0,14,0.00,,SKC,0.00,VWS V14.01,2013-09-26 01:19:00,
2013-09-25 18:24:00,85.0,30.5,29.72,South,180,5.0,6.0,14,0.00,,SKC,0.00,VWS V14.01,2013-09-26 01:24:00,
2013-09-25 18:29:00,85.0,30.5,29.72,SSE,158,6.0,8.0,14,0.00,,SKC,0.00,VWS V14.01,2013-09-26 01:29:00,
2013-09-25 18:34:00,84.0,29.7,29.72,SE,135,5.0,6.0,14,0.00,,SKC,0.00,VWS V14.01,2013-09-26 01:34:00,
2013-09-25 18:39:00,84.0,29.7,29.72,SSW,202,6.0,6.0,14,0.00,,SKC,0.00,VWS V14.01,2013-09-26 01:39:00,
2013-09-25 18:44:00,84.0,29.7,29.72,South,180,4.0,5.0,14,0.00,,SKC,0.00,VWS V14.01,2013-09-26 01:44:00,
2013-09-25 18:49:00,84.0,29.7,29.72,SW,225,3.0,5.0,14,0.00,,SKC,0.00,VWS V14.01,2013-09-26 01:49:00,
2013-09-25 18:54:00,83.0,28.9,29.73,SSW,202,5.0,5.0,14,0.00,,SKC,0.00,VWS V14.01,2013-09-26 01:54:00,
2013-09-25 18:59:00,83.0,28.9,29.73,SW,225,5.0,7.0,14,0.00,,SKC,0.00,VWS V14.01,2013-09-26 01:59:00,
2013-09-25 19:04:00,83.0,27.1,29.73,SSW,202,5.0,8.0,13,0.00,,SKC,0.00,VWS V14.01,2013-09-26 02:04:00,
2013-09-25 19:09:00,83.0,27.1,29.73,SW,225,5.0,5.0,13,0.00,,SKC,0.00,VWS V14.01,2013-09-26 02:09:00,
2013-09-25 19:14:00,83.0,27.1,29.73,South,180,10.0,10.0,13,0.00,,SKC,0.00,VWS V14.01,2013-09-26 02:14:00,
2013-09-25 19:19:00,82.0,26.4,29.73,SW,225,5.0,7.0,13,0.00,,SKC,0.00,VWS V14.01,2013-09-26 02:19:00,
2013-09-25 19:24:00,82.0,26.4,29.73,SW,225,3.0,3.0,13,0.00,,SKC,0.00,VWS V14.01,2013-09-26 02:24:00,
2013-09-25 19:29:00,81.0,27.4,29.74,SSW,202,6.0,7.0,14,0.00,,SKC,0.00,VWS V14.01,2013-09-26 02:29:00,
2013-09-25 19:34:00,81.0,27.4,29.74,South,180,5.0,8.0,14,0.00,,SKC,0.00,VWS V14.01,2013-09-26 02:34:00,
2013-09-25 19:39:00,81.0,27.4,29.74,SSW,202,9.0,10.0,14,0.00,,SKC,0.00,VWS V14.01,2013-09-26 02:39:00,
2013-09-25 19:44:00,81.0,27.4,29.74,South,180,3.0,3.0,14,0.00,,SKC,0.00,VWS V14.01,2013-09-26 02:44:00,
2013-09-25 19:49:00,80.0,26.6,29.74,WSW,248,2.0,3.0,14,0.00,,SKC,0.00,VWS V14.01,2013-09-26 02:49:00,
2013-09-25 19:54:00,80.0,28.2,29.74,SSE,158,5.0,5.0,15,0.00,,SKC,0.00,VWS V14.01,2013-09-26 02:54:00,
2013-09-25 19:59:00,80.0,28.2,29.74,SSW,202,5.0,5.0,15,0.00,,SKC,0.00,VWS V14.01,2013-09-26 02:59:00,
2013-09-25 20:04:00,80.0,28.2,29.74,WSW,248,5.0,6.0,15,0.00,,SKC,0.00,VWS V14.01,2013-09-26 03:04:00,
2013-09-25 20:09:00,80.0,28.2,29.74,SSE,158,3.0,4.0,15,0.00,,SKC,0.00,VWS V14.01,2013-09-26 03:09:00,
2013-09-25 20:14:00,80.0,28.2,29.75,South,180,6.0,6.0,15,0.00,,SKC,0.00,VWS V14.01,2013-09-26 03:14:00,
2013-09-25 20:19:00,79.0,27.5,29.75,SSE,158,3.0,4.0,15,0.00,,SKC,0.00,VWS V14.01,2013-09-26 03:19:00,
2013-09-25 20:24:00,79.0,29.0,29.75,South,180,2.0,3.0,16,0.00,,SKC,0.00,VWS V14.01,2013-09-26 03:24:00,
2013-09-25 20:29:00,78.0,28.2,29.75,SSW,202,3.0,3.0,16,0.00,,SKC,0.00,VWS V14.01,2013-09-26 03:29:00,
2013-09-25 20:34:00,78.0,28.2,29.75,WSW,248,2.0,3.0,16,0.00,,SKC,0.00,VWS V14.01,2013-09-26 03:34:00,
2013-09-25 20:39:00,77.0,27.4,29.75,WSW,248,3.0,5.0,16,0.00,,SKC,0.00,VWS V14.01,2013-09-26 03:39:00,
2013-09-25 20:44:00,77.0,28.9,29.75,WSW,248,2.0,3.0,17,0.00,,SKC,0.00,VWS V14.01,2013-09-26 03:44:00,
2013-09-25 20:49:00,77.0,28.9,29.75,SW,225,2.0,3.0,17,0.00,,SKC,0.00,VWS V14.01,2013-09-26 03:49:00,
2013-09-25 20:54:00,77.0,28.9,29.75,SW,225,2.0,3.0,17,0.00,,SKC,0.00,VWS V14.01,2013-09-26 03:54:00,
2013-09-25 20:59:00,77.0,27.4,29.75,SW,225,3.0,3.0,16,0.00,,SKC,0.00,VWS V14.01,2013-09-26 03:59:00,
2013-09-25 21:01:00,77.0,27.4,29.75,SW,225,2.0,3.0,16,0.00,,SKC,0.00,VWS V14.01,2013-09-26 04:01:00,
2013-09-25 21:02:00,77.0,28.9,29.75,WSW,248,1.0,3.0,17,0.00,,SKC,0.00,VWS V14.01,2013-09-26 04:02:00,
2013-09-25 21:04:00,77.0,28.9,29.75,SSW,202,1.0,2.0,17,0.00,,SKC,0.00,VWS V14.01,2013-09-26 04:04:00,
2013-09-25 21:05:00,77.0,28.9,29.75,SSW,202,1.0,3.0,17,0.00,,SKC,0.00,VWS V14.01,2013-09-26 04:05:00,
2013-09-25 21:10:00,76.0,28.1,29.75,SSW,202,3.0,3.0,17,0.00,,SKC,0.00,VWS V14.01,2013-09-26 04:10:00,
2013-09-25 21:11:00,76.0,28.1,29.75,SW,225,1.0,2.0,17,0.00,,SKC,0.00,VWS V14.01,2013-09-26 04:11:00,
2013-09-25 21:16:00,76.0,28.1,29.75,SW,225,1.0,1.0,17,0.00,,SKC,0.00,VWS V14.01,2013-09-26 04:16:00,
2013-09-25 21:21:00,76.0,28.1,29.75,SSW,202,3.0,3.0,17,0.00,,SKC,0.00,VWS V14.01,2013-09-26 04:21:00,
2013-09-25 21:26:00,75.0,27.3,29.75,South,180,4.0,4.0,17,0.00,,SKC,0.00,VWS V14.01,2013-09-26 04:26:00,
2013-09-25 21:31:00,75.0,27.3,29.76,WSW,248,5.0,6.0,17,0.00,,SKC,0.00,VWS V14.01,2013-09-26 04:31:00,
2013-09-25 21:36:00,76.0,28.1,29.76,South,180,5.0,5.0,17,0.00,,SKC,0.00,VWS V14.01,2013-09-26 04:36:00,
2013-09-25 21:41:00,76.0,28.1,29.76,South,180,5.0,5.0,17,0.00,,SKC,0.00,VWS V14.01,2013-09-26 04:41:00,
2013-09-25 21:46:00,77.0,28.9,29.76,SSE,158,6.0,6.0,17,0.00,,SKC,0.00,VWS V14.01,2013-09-26 04:46:00,
2013-09-25 21:51:00,77.0,27.4,29.76,SE,135,7.0,8.0,16,0.00,,SKC,0.00,VWS V14.01,2013-09-26 04:51:00,
2013-09-25 21:56:00,78.0,28.2,29.76,SSE,158,7.0,8.0,16,0.00,,SKC,0.00,VWS V14.01,2013-09-26 04:56:00,
2013-09-25 22:01:00,77.0,28.9,29.76,SSW,202,4.0,4.0,17,0.00,,SKC,0.00,VWS V14.01,2013-09-26 05:01:00,
2013-09-25 22:06:00,77.0,28.9,29.76,SSE,158,6.0,7.0,17,0.00,,SKC,0.00,VWS V14.01,2013-09-26 05:06:00,
2013-09-25 22:11:00,77.0,28.9,29.76,South,180,8.0,8.0,17,0.00,,SKC,0.00,VWS V14.01,2013-09-26 05:11:00,
2013-09-25 22:16:00,77.0,28.9,29.76,SSW,202,6.0,6.0,17,0.00,,SKC,0.00,VWS V14.01,2013-09-26 05:16:00,
2013-09-25 22:21:00,77.0,28.9,29.76,SW,225,4.0,4.0,17,0.00,,SKC,0.00,VWS V14.01,2013-09-26 05:21:00,
2013-09-25 22:26:00,77.0,27.4,29.76,South,180,7.0,7.0,16,0.00,,SKC,0.00,VWS V14.01,2013-09-26 05:26:00,
2013-09-25 22:31:00,77.0,27.4,29.77,South,180,6.0,9.0,16,0.00,,SKC,0.00,VWS V14.01,2013-09-26 05:31:00,
2013-09-25 22:36:00,78.0,28.2,29.77,SSE,158,8.0,10.0,16,0.00,,SKC,0.00,VWS V14.01,2013-09-26 05:36:00,
2013-09-25 22:41:00,78.0,28.2,29.77,SSE,158,8.0,11.0,16,0.00,,SKC,0.00,VWS V14.01,2013-09-26 05:41:00,
2013-09-25 22:46:00,77.0,27.4,29.77,South,180,8.0,8.0,16,0.00,,SKC,0.00,VWS V14.01,2013-09-26 05:46:00,
2013-09-25 22:51:00,77.0,27.4,29.77,SSE,158,7.0,9.0,16,0.00,,SKC,0.00,VWS V14.01,2013-09-26 05:51:00,
2013-09-25 22:56:00,76.0,26.6,29.77,SSE,158,7.0,7.0,16,0.00,,SKC,0.00,VWS V14.01,2013-09-26 05:56:00,
2013-09-25 23:01:00,76.0,26.6,29.77,SSE,158,6.0,8.0,16,0.00,,SKC,0.00,VWS V14.01,2013-09-26 06:01:00,
2013-09-25 23:06:00,76.0,26.6,29.77,SW,225,5.0,5.0,16,0.00,,SKC,0.00,VWS V14.01,2013-09-26 06:06:00,
2013-09-25 23:11:00,75.0,25.8,29.77,South,180,6.0,7.0,16,0.00,,SKC,0.00,VWS V14.01,2013-09-26 06:11:00,
2013-09-25 23:16:00,75.0,27.3,29.77,SSW,202,2.0,3.0,17,0.00,,SKC,0.00,VWS V14.01,2013-09-26 06:16:00,
2013-09-25 23:21:00,74.0,26.5,29.77,WSW,248,4.0,4.0,17,0.00,,SKC,0.00,VWS V14.01,2013-09-26 06:21:00,
2013-09-25 23:26:00,74.0,26.5,29.77,SSW,202,4.0,6.0,17,0.00,,SKC,0.00,VWS V14.01,2013-09-26 06:26:00,
2013-09-25 23:31:00,74.0,26.5,29.76,SW,225,1.0,2.0,17,0.00,,SKC,0.00,VWS V14.01,2013-09-26 06:31:00,
2013-09-25 23:36:00,73.0,25.6,29.76,SSE,158,3.0,3.0,17,0.00,,SKC,0.00,VWS V14.01,2013-09-26 06:36:00,
2013-09-25 23:41:00,73.0,27.0,29.76,SW,225,3.0,3.0,18,0.00,,SKC,0.00,VWS V14.01,2013-09-26 06:41:00,
2013-09-25 23:46:00,73.0,27.0,29.76,South,180,2.0,2.0,18,0.00,,SKC,0.00,VWS V14.01,2013-09-26 06:46:00,
2013-09-25 23:51:00,73.0,27.0,29.76,SW,225,3.0,4.0,18,0.00,,SKC,0.00,VWS V14.01,2013-09-26 06:51:00,
2013-09-25 23:56:00,73.0,27.0,29.76,SSW,202,3.0,5.0,18,0.00,,SKC,0.00,VWS V14.01,2013-09-26 06:56:00,